Location: Elstree
(51.6403°N, 0.2969°W)
Time: 09:39:45
(UTC+00:00)

Envisat - Pass Details

Date: 10 December 2022
Orbit: 763 x 765 km, 98.2° (Epoch: 28 January)

Event Time Altitude Azimuth Distance (km) Brightness Sun altitude
Rises 04:56:26 0° 11° (NNE) 3,247 6.3 -26.5°
Reaches altitude 10° 04:58:47 10° 8° (N) 2,316 5.5 -26.2°
Enters shadow 05:01:06 27° 358° (N) 1,462 4.3 -25.8°
